Wetbulb
71.46 72.88 75.56 75.52 75.54 76.94 77.74 78.00 78.50 78.58 78.43 78.43 78.01 77.66 77.76 77.45 76.77 77.00 76.99 76.80 76.57 76.50 76.20 76.37 76.22 75.92 75.15 75.59 75.74 75.49 75.36 75.14 74.82 74.27 74.68 74.84 75.07 75.59 75.34 75.64 73.62 71.97 74.46
72.24 73.84 75.69 75.67 76.45 77.48 77.73 78.16 78.19 78.24 77.84 77.90 77.77 77.52 77.25 76.90 77.10 77.07 76.74 76.75 76.50 76.39 76.21 75.93 76.07 75.76 75.61 75.60 75.67 75.25 75.56 75.08 74.74 74.04 74.19 74.55 74.27 74.63 75.39 75.19 73.73 73.42 74.83
72.26 73.73 74.51 76.51 77.00 77.24 77.38 78.05 77.89 77.80 77.23 77.44 77.25 77.06 76.99 76.85 77.01 76.72 76.67 76.51 76.21 76.22 76.16 76.18 75.80 75.82 75.55 75.53 75.46 75.00 75.08 74.81 75.08 73.99 74.18 71.24 72.54 75.18 75.38 74.32 75.15 74.91 74.69
72.62 72.79 73.82 76.65 77.15 77.28 77.58 77.82 77.98 77.61 77.55 77.28 77.18 77.21 77.25 76.99 76.92 76.71 76.49 76.16 76.02 76.19 75.81 75.89 75.82 75.52 75.35 75.34 75.05 74.85 74.98 74.70 74.90 74.55 71.29 71.19 73.12 75.61 74.68 74.02 74.06 74.59 74.66
72.10 73.01 74.01 76.77 77.63 77.24 77.32 77.77 78.13 78.01 77.39 77.32 77.35 77.23 77.05 76.84 76.60 76.19 76.02 76.07 75.91 75.94 76.32 75.83 75.68 75.46 75.47 75.00 74.92 74.91 75.52 75.60 75.50 73.75 70.59 69.75 71.67 74.37 74.87 73.93 73.95 74.84 74.92
72.42 73.86 75.69 76.94 77.09 76.96 77.01 77.25 77.44 77.42 77.23 77.11 76.93 76.91 76.92 76.66 76.33 76.14 76.14 76.19 75.86 76.16 76.22 75.42 75.28 75.35 75.33 75.14 74.93 74.44 76.32 75.66 75.02 72.05 69.66 72.39 71.69 75.21 75.30 75.05 74.89 74.78 75.13
71.96 73.45 74.56 77.45 77.59 77.28 77.01 76.97 76.86 77.16 77.25 77.19 77.01 76.86 76.93 76.61 76.12 76.17 75.95 76.09 75.76 76.04 76.14 75.56 75.26 75.01 75.30 75.09 74.90 74.80 75.72 75.01 71.56 71.70 71.27 71.01 71.69 75.42 75.16 74.88 74.93 74.48 75.11
72.92 73.82 74.53 76.54 76.96 77.00 76.81 76.86 76.70 76.84 77.17 77.16 76.99 76.81 77.03 76.68 76.20 75.96 75.74 75.63 75.66 75.85 75.60 75.60 75.07 75.06 74.65 74.60 74.82 76.55 75.90 74.16 72.10 71.82 71.94 71.82 74.21 75.76 75.76 74.54 74.98 74.01 74.46
74.33 74.29 74.24 74.19 75.10 76.82 77.00 76.68 76.57 76.94 77.17 77.19 77.17 77.02 76.85 76.68 76.22 76.01 75.52 75.24 75.35 75.35 75.38 75.27 75.04 74.96 74.90 74.85 75.52 75.95 75.72 74.46 71.43 71.51 72.76 72.55 76.05 75.47 75.46 74.65 74.65 73.91 74.07
73.75 73.96 73.75 73.43 73.88 74.39 74.70 76.71 76.55 76.94 77.32 77.20 77.29 77.18 77.00 76.60 76.26 75.93 77.00 75.96 75.93 75.79 75.35 75.24 75.49 74.56 75.54 75.86 75.55 75.07 75.45 73.82 68.70 69.53 70.75 71.76 75.33 75.34 74.74 74.35 74.81 74.62 73.93
72.93 73.08 73.07 73.36 73.76 74.33 74.13 74.76 76.60 76.82 77.09 77.24 76.75 76.97 76.86 73.87 73.72 74.55 75.64 76.21 75.46 76.41 76.07 75.77 75.49 74.65 75.60 76.31 75.67 74.72 74.09 68.07 68.59 69.36 71.68 73.24 74.67 74.63 74.54 74.91 74.30 74.24 74.56
71.01 72.50 73.24 73.05 73.64 73.58 74.93 73.32 73.31 73.50 74.34 74.18 73.88 73.45 74.00 73.41 72.72 72.68 75.02 76.51 76.23 76.12 75.66 76.01 76.10 73.44 73.05 72.53 73.70 74.02 69.99 69.23 68.76 70.66 70.97 73.96 74.50 73.88 73.69 74.72 74.78 74.62 74.61
70.86 72.30 73.05 73.43 73.58 73.23 73.31 72.28 72.41 72.74 72.60 72.56 72.32 72.30 72.41 73.43 71.96 72.87 73.43 73.48 72.05 73.95 72.96 73.98 73.76 71.71 71.22 71.27 72.49 69.66 69.39 67.77 68.05 65.36 70.73 73.93 74.95 75.44 75.45 74.76 75.37 74.69 74.66
70.33 71.41 72.69 73.47 73.19 72.15 71.69 72.46 72.20 71.85 71.43 71.25 71.28 71.48 71.08 71.63 71.70 71.67 72.13 71.92 71.89 72.02 72.02 72.30 72.19 71.34 71.43 71.89 71.96 71.70 69.96 66.94 66.57 68.68 67.99 75.05 75.52 75.29 75.34 75.43 75.08 75.16 74.89
69.81 71.04 72.10 73.02 72.68 72.10 70.62 71.27 70.30 70.89 71.24 71.27 70.87 71.13 71.63 71.46 71.06 71.20 71.97 72.35 71.86 73.39 72.27 72.07 70.84 70.91 71.25 71.24 70.91 70.28 70.33 70.28 68.31 71.18 69.22 75.10 76.21 75.49 75.46 74.89 75.10 75.05 74.67
70.37 70.89 71.99 72.30 72.44 71.94 70.66 70.07 70.39 70.59 71.38 71.33 71.12 71.45 72.72 71.52 70.71 71.54 71.29 71.53 71.40 72.03 72.41 71.84 71.44 71.00 70.94 72.64 71.98 70.30 68.78 68.69 70.50 70.74 69.26 71.30 74.98 75.86 76.28 75.96 75.13 74.63 74.77
70.58 71.29 71.33 71.97 72.59 72.10 71.24 70.61 70.31 70.84 72.29 72.66 72.31 71.99 72.58 71.65 71.90 71.88 71.57 71.04 71.32 71.86 71.76 72.10 70.58 70.99 69.19 68.67 63.90 64.71 67.81 68.86 70.05 70.78 70.34 70.31 72.62 75.23 76.14 76.16 76.20 75.24 74.81
70.89 70.63 71.41 72.64 71.86 71.84 71.55 71.06 70.86 71.65 73.03 73.08 71.82 71.99 72.39 72.16 72.41 71.52 70.92 70.88 71.83 72.18 72.42 71.15 69.56 67.14 64.76 63.59 61.09 62.93 63.25 64.36 65.37 70.19 70.56 70.36 70.50 71.29 74.03 75.38 75.69 75.80 74.48
70.48 70.04 70.21 71.13 70.87 71.48 71.53 71.72 71.12 71.55 70.45 70.58 71.24 71.84 72.13 72.76 73.19 72.18 70.98 71.08 71.67 71.78 72.01 70.54 68.51 66.59 62.67 61.80 62.36 63.03 63.38 63.96 65.36 66.77 69.49 70.20 70.22 71.28 70.64 73.88 74.96 75.10 75.05
70.09 70.22 70.51 70.90 71.15 71.29 71.88 72.00 70.80 70.06 70.33 71.15 71.11 71.70 71.97 72.70 73.38 72.50 71.47 71.74 71.75 70.76 70.04 68.44 67.16 64.80 62.57 62.96 65.07 63.19 63.44 63.88 66.41 65.43 65.37 68.47 66.41 71.13 71.33 72.25 70.73 71.79 74.62
69.90 69.62 70.66 70.37 71.28 71.31 70.82 70.96 69.78 69.14 69.91 71.14 70.94 71.40 71.56 73.43 73.41 72.59 70.95 71.19 70.57 70.04 69.48 68.00 64.65 62.00 60.93 63.31 59.12 60.07 62.89 63.29 62.65 62.98 65.54 68.30 69.65 70.37 70.34 69.70 69.77 70.09 72.17
68.62 69.16 70.14 70.69 71.04 71.39 71.40 71.79 70.83 70.18 70.53 70.77 71.71 71.27 72.79 73.44 73.77 72.47 70.96 70.87 70.85 69.93 68.47 67.23 63.20 61.04 61.97 62.88 59.11 59.46 58.38 61.05 62.41 62.19 62.57 67.87 68.49 68.78 68.85 69.33 69.57 69.91 69.64
68.24 69.13 70.06 70.68 70.69 71.25 71.40 70.79 70.56 70.33 70.65 70.18 70.31 70.97 72.32 72.72 73.73 72.48 71.57 70.90 70.40 70.37 67.34 63.93 63.11 61.59 61.03 62.69 60.70 60.37 57.67 56.64 59.87 62.18 61.80 66.22 66.63 66.28 66.29 67.14 68.20 68.67 67.51
68.53 70.00 70.49 70.80 70.88 70.96 71.02 70.83 70.46 69.14 68.54 69.30 70.35 70.87 70.92 72.46 73.22 72.53 71.67 70.80 70.58 69.33 66.02 63.95 64.04 61.94 61.05 61.15 62.74 62.65 60.36 60.53 58.46 57.23 60.14 61.95 61.72 63.76 62.18 62.44 65.59 68.11 66.81
69.61 69.80 70.49 70.54 71.06 71.33 71.36 71.37 70.68 69.61 70.21 69.23 69.73 70.34 70.61 71.72 72.55 73.04 71.69 70.45 68.57 68.06 65.74 64.68 64.04 64.25 61.07 60.91 62.10 61.21 59.02 60.14 57.75 57.92 55.90 57.71 59.90 60.19 61.27 60.11 60.41 64.96 66.68
69.73 69.46 70.33 69.58 70.77 71.35 71.41 71.60 71.09 70.28 69.58 68.84 68.02 69.23 69.58 70.82 71.83 72.30 72.04 70.20 67.46 67.28 65.41 64.87 64.17 64.19 64.51 63.31 62.29 61.22 58.83 58.07 58.13 57.21 55.59 56.42 57.39 58.75 59.11 59.41 59.02 59.79 65.31
MSLP
1013.98 1013.87 1013.96 1014.03 1014.17 1014.26 1014.23 1014.35 1014.50 1014.61 1014.80 1015.10 1015.30 1015.40 1015.61 1015.96 1016.19 1016.42 1016.58 1016.50 1016.48 1016.60 1016.61 1016.51 1016.52 1016.58 1016.68 1016.85 1016.92 1017.07 1017.11 1017.06 1016.93 1017.11 1017.25 1017.33 1017.38 1017.40 1017.43 1017.62 1017.85 1017.96 1018.02
1013.97 1014.07 1014.12 1014.32 1014.52 1014.66 1014.82 1014.92 1015.00 1015.15 1015.31 1015.44 1015.56 1015.67 1015.94 1016.18 1016.44 1016.70 1016.85 1016.72 1016.69 1016.75 1016.71 1016.73 1016.67 1016.78 1016.85 1016.96 1017.06 1017.19 1017.11 1017.16 1017.21 1017.14 1017.30 1017.41 1017.47 1017.51 1017.52 1017.69 1017.98 1018.19 1018.21
1014.25 1014.28 1014.39 1014.75 1014.74 1014.97 1015.24 1015.35 1015.43 1015.55 1015.68 1015.86 1015.99 1016.10 1016.19 1016.42 1016.65 1016.86 1016.87 1016.86 1016.90 1016.85 1016.78 1016.86 1016.84 1016.91 1017.07 1017.13 1017.05 1017.12 1017.06 1017.04 1017.12 1017.21 1017.36 1017.61 1017.56 1017.74 1017.67 1017.88 1018.07 1018.24 1018.48
1014.25 1014.57 1014.63 1014.90 1015.11 1015.27 1015.56 1015.78 1015.84 1015.87 1016.08 1016.25 1016.29 1016.40 1016.51 1016.73 1016.90 1016.95 1016.99 1017.08 1017.10 1016.99 1016.98 1016.96 1017.00 1016.99 1017.13 1017.19 1017.06 1017.09 1017.10 1017.07 1017.04 1017.12 1017.48 1017.52 1017.69 1017.80 1017.95 1018.02 1018.35 1018.49 1018.58
1014.50 1014.72 1014.75 1015.07 1015.26 1015.49 1015.81 1016.02 1016.07 1016.19 1016.29 1016.38 1016.56 1016.62 1016.73 1016.96 1017.07 1017.12 1017.22 1017.27 1017.16 1017.06 1017.06 1016.98 1016.95 1017.11 1017.27 1017.26 1017.16 1017.14 1017.01 1017.03 1017.12 1017.22 1017.50 1017.68 1017.75 1017.82 1018.13 1018.32 1018.53 1018.64 1018.80
1014.67 1014.87 1015.03 1015.21 1015.39 1015.64 1015.99 1016.21 1016.26 1016.37 1016.41 1016.63 1016.72 1016.81 1016.92 1017.07 1017.16 1017.25 1017.32 1017.25 1017.10 1017.10 1017.11 1017.04 1017.15 1017.27 1017.42 1017.45 1017.33 1017.05 1016.94 1016.87 1017.13 1017.44 1017.65 1017.61 1017.82 1017.96 1018.19 1018.42 1018.73 1018.99 1019.00
1014.85 1015.00 1015.24 1015.37 1015.55 1015.80 1016.12 1016.33 1016.50 1016.50 1016.60 1016.81 1016.94 1016.96 1017.10 1017.25 1017.40 1017.47 1017.39 1017.29 1017.22 1017.19 1017.16 1017.18 1017.28 1017.44 1017.54 1017.49 1017.30 1017.01 1016.96 1017.13 1017.38 1017.85 1017.96 1017.88 1018.00 1018.05 1018.33 1018.46 1018.80 1019.14 1019.27
1014.91 1015.14 1015.31 1015.51 1015.68 1015.89 1016.17 1016.44 1016.59 1016.59 1016.79 1017.03 1017.02 1017.11 1017.25 1017.43 1017.57 1017.52 1017.41 1017.34 1017.30 1017.20 1017.25 1017.35 1017.42 1017.55 1017.57 1017.49 1017.30 1017.11 1017.24 1017.32 1017.60 1017.83 1018.18 1018.20 1018.22 1018.25 1018.44 1018.73 1018.93 1019.19 1019.48
1015.00 1015.26 1015.40 1015.63 1015.79 1016.01 1016.32 1016.53 1016.61 1016.76 1016.92 1017.07 1017.09 1017.28 1017.33 1017.58 1017.62 1017.56 1017.50 1017.42 1017.36 1017.27 1017.35 1017.39 1017.39 1017.60 1017.65 1017.46 1017.38 1017.37 1017.42 1017.62 1017.99 1018.06 1018.30 1018.43 1018.27 1018.42 1018.59 1018.89 1019.05 1019.29 1019.61
1015.34 1015.35 1015.50 1015.71 1015.93 1016.19 1016.41 1016.48 1016.65 1016.85 1017.03 1017.10 1017.17 1017.30 1017.44 1017.57 1017.51 1017.53 1017.54 1017.52 1017.42 1017.34 1017.42 1017.39 1017.38 1017.64 1017.68 1017.53 1017.42 1017.51 1017.60 1017.85 1018.10 1018.28 1018.43 1018.55 1018.45 1018.58 1018.81 1018.99 1019.23 1019.49 1019.81
1015.50 1015.58 1015.58 1015.84 1016.09 1016.25 1016.45 1016.50 1016.70 1016.85 1017.00 1017.09 1017.17 1017.31 1017.51 1017.65 1017.66 1017.62 1017.60 1017.55 1017.35 1017.29 1017.48 1017.42 1017.42 1017.61 1017.66 1017.53 1017.42 1017.64 1017.82 1018.29 1018.37 1018.54 1018.60 1018.61 1018.68 1018.62 1018.93 1019.17 1019.49 1019.76 1019.88
1015.35 1015.62 1015.76 1015.86 1016.07 1016.29 1016.40 1016.55 1016.78 1016.88 1017.04 1017.18 1017.29 1017.47 1017.58 1017.76 1017.84 1017.60 1017.58 1017.48 1017.32 1017.36 1017.21 1017.38 1017.48 1017.63 1017.80 1017.81 1017.59 1017.74 1018.23 1018.37 1018.43 1018.47 1018.60 1018.53 1018.69 1018.71 1019.00 1019.29 1019.56 1019.80 1020.01
1014.94 1015.41 1015.65 1015.84 1015.99 1016.32 1016.38 1016.59 1016.78 1016.94 1017.13 1017.30 1017.46 1017.55 1017.71 1017.86 1017.88 1017.75 1017.71 1017.81 1017.72 1017.61 1017.56 1017.50 1017.52 1017.80 1018.03 1017.86 1017.82 1018.05 1018.21 1018.42 1018.42 1018.47 1018.37 1018.50 1018.64 1018.73 1018.94 1019.27 1019.49 1019.84 1020.05
1014.79 1014.99 1015.36 1015.52 1015.90 1016.19 1016.37 1016.45 1016.66 1016.96 1017.14 1017.30 1017.49 1017.61 1017.72 1017.88 1017.84 1017.73 1017.69 1017.78 1017.83 1017.79 1017.74 1017.71 1017.69 1017.74 1017.88 1017.86 1017.79 1017.91 1018.07 1018.42 1018.48 1018.38 1018.50 1018.34 1018.54 1018.72 1018.93 1019.19 1019.54 1019.75 1019.91
1014.36 1014.64 1014.93 1015.33 1015.74 1015.83 1016.24 1016.45 1016.69 1016.88 1017.00 1017.01 1017.26 1017.49 1017.58 1017.76 1017.84 1017.65 1017.64 1017.82 1017.77 1017.59 1017.77 1017.76 1017.67 1017.82 1017.77 1017.72 1017.80 1017.80 1017.92 1018.01 1018.11 1018.25 1018.42 1018.34 1018.50 1018.72 1018.92 1019.17 1019.36 1019.64 1019.87
1013.82 1014.17 1014.59 1014.97 1015.21 1015.53 1016.00 1016.29 1016.44 1016.60 1016.66 1016.84 1016.92 1017.13 1017.31 1017.48 1017.53 1017.53 1017.50 1017.61 1017.70 1017.62 1017.45 1017.60 1017.75 1017.68 1017.75 1017.61 1017.71 1017.96 1017.82 1017.93 1018.03 1018.12 1018.36 1018.46 1018.44 1018.69 1018.98 1019.08 1019.35 1019.58 1019.77
1013.09 1013.65 1014.20 1014.51 1014.72 1015.33 1015.70 1015.90 1016.15 1016.14 1016.23 1016.27 1016.39 1016.73 1016.96 1017.15 1017.43 1017.55 1017.37 1017.63 1017.61 1017.45 1017.48 1017.73 1017.85 1017.80 1017.95 1017.78 1017.82 1017.63 1017.96 1017.83 1017.95 1018.07 1018.39 1018.49 1018.53 1018.58 1018.77 1019.03 1019.17 1019.42 1019.63
1012.69 1013.22 1013.67 1014.05 1014.44 1014.91 1015.30 1015.45 1015.63 1015.69 1015.62 1015.63 1015.95 1016.27 1016.57 1016.89 1017.19 1017.27 1017.43 1017.38 1017.33 1017.33 1017.55 1017.67 1017.98 1018.15 1018.07 1018.04 1018.13 1017.96 1018.03 1017.74 1017.69 1018.07 1018.30 1018.40 1018.42 1018.70 1018.69 1018.84 1019.05 1019.29 1019.47
1011.96 1012.65 1013.20 1013.61 1013.94 1014.47 1014.86 1015.04 1015.24 1015.29 1015.43 1015.42 1015.68 1015.94 1016.14 1016.51 1016.86 1017.09 1017.17 1017.21 1017.26 1017.41 1017.55 1017.80 1018.13 1018.26 1018.44 1018.38 1018.33 1018.20 1018.13 1018.03 1017.91 1017.81 1018.01 1018.22 1018.37 1018.56 1018.72 1018.73 1018.92 1019.14 1019.34
1011.44 1012.04 1012.54 1012.91 1013.34 1013.98 1014.46 1014.83 1015.14 1015.45 1015.13 1015.21 1015.37 1015.68 1015.85 1016.13 1016.45 1016.79 1016.87 1017.11 1017.22 1017.59 1017.82 1018.01 1018.25 1018.47 1018.60 1018.67 1018.63 1018.60 1018.39 1018.22 1017.91 1017.93 1018.07 1017.98 1018.41 1018.57 1018.69 1018.77 1019.07 1019.27 1019.23
1011.04 1011.58 1012.09 1012.57 1012.80 1013.44 1014.21 1014.78 1015.22 1015.40 1015.28 1015.46 1015.35 1015.37 1015.66 1015.91 1016.19 1016.48 1016.79 1017.12 1017.22 1017.59 1017.87 1018.09 1018.36 1018.53 1018.77 1018.77 1018.98 1019.06 1018.93 1018.78 1018.50 1018.59 1018.44 1018.42 1018.49 1018.62 1018.83 1019.01 1019.14 1019.29 1019.35
1009.91 1010.57 1011.33 1011.76 1012.16 1012.61 1013.24 1013.81 1014.37 1014.60 1014.66 1014.74 1014.91 1015.23 1015.44 1015.67 1015.93 1016.27 1016.60 1017.14 1017.30 1017.63 1017.86 1018.05 1018.23 1018.81 1018.95 1018.93 1019.44 1019.90 1019.93 1019.76 1019.26 1019.14 1019.04 1019.01 1018.94 1018.88 1019.03 1019.18 1019.33 1019.48 1019.69
1009.00 1009.43 1010.04 1010.67 1011.32 1011.90 1012.41 1013.28 1013.97 1014.29 1014.49 1014.74 1014.98 1015.23 1015.29 1015.37 1015.57 1015.99 1016.36 1016.77 1017.16 1017.46 1017.68 1017.99 1018.17 1018.61 1019.00 1019.06 1019.14 1019.57 1020.25 1020.30 1020.27 1019.98 1019.72 1019.52 1019.47 1019.50 1019.38 1019.49 1019.66 1019.84 1019.94
1007.80 1008.65 1009.25 1009.89 1010.54 1011.24 1011.86 1012.52 1013.05 1013.38 1013.89 1014.22 1014.46 1014.59 1014.85 1014.98 1015.16 1015.55 1015.97 1016.46 1016.68 1017.00 1017.45 1017.80 1018.11 1018.45 1018.77 1019.20 1019.33 1019.36 1019.55 1019.71 1020.29 1020.89 1020.48 1020.12 1020.08 1019.95 1020.05 1019.94 1019.89 1020.01 1020.20
1006.79 1007.71 1008.47 1009.17 1009.85 1010.48 1011.20 1011.61 1012.37 1012.76 1013.06 1013.58 1014.02 1014.37 1014.60 1014.78 1014.87 1015.12 1015.59 1016.05 1016.51 1016.87 1017.11 1017.65 1018.08 1018.34 1018.59 1018.97 1019.21 1019.37 1019.65 1019.87 1020.00 1020.56 1021.01 1020.77 1020.53 1020.19 1020.14 1020.15 1020.10 1020.05 1020.12
1006.17 1006.97 1007.69 1008.53 1009.13 1009.69 1010.31 1010.82 1011.37 1011.90 1012.55 1013.32 1013.90 1014.16 1014.37 1014.46 1014.72 1014.91 1015.22 1015.67 1015.93 1016.51 1016.96 1017.42 1017.80 1018.14 1018.37 1018.70 1019.01 1019.25 1019.42 1019.77 1020.08 1020.32 1020.82 1020.82 1020.62 1020.29 1020.27 1020.14 1020.16 1020.08 1020.06
Wind_Speed
5 10 17 19 18 15 15 15 17 17 17 17 17 17 17 16 15 14 12 12 11 10 9 10 11 10 11 11 12 11 11 10 11 11 9 10 10 11 12 12 11 7 11
7 8 17 19 18 17 17 16 17 16 17 17 16 16 15 15 14 13 12 11 9 8 9 10 9 9 9 9 10 10 10 10 9 10 11 8 6 9 11 12 11 8 11
7 7 13 18 19 19 17 16 17 16 16 16 16 15 14 13 13 11 10 10 8 8 8 8 8 8 7 9 8 8 8 10 10 10 11 5 3 12 12 12 12 10 10
8 5 8 17 18 18 17 16 15 17 16 15 15 14 13 11 11 9 9 8 6 7 7 6 6 6 6 6 6 6 6 6 9 10 5 4 8 12 12 12 10 10 10
7 5 9 17 17 18 17 15 14 15 15 15 14 13 12 10 9 8 8 6 5 5 6 5 4 4 5 6 4 4 7 7 9 9 5 5 4 10 12 13 10 10 11
9 7 14 18 19 17 16 15 15 14 14 13 13 12 11 9 8 7 7 6 3 3 5 5 4 4 5 5 3 0 5 6 7 6 5 7 5 12 12 12 12 11 12
7 5 11 16 17 17 16 15 14 13 13 12 11 11 9 8 7 6 5 4 2 2 4 4 4 4 5 4 3 2 7 11 6 5 4 5 4 11 12 11 11 11 12
9 6 9 16 17 16 16 14 13 13 12 11 11 10 9 8 6 5 4 3 1 1 2 3 3 3 3 3 2 5 9 11 6 6 4 4 6 9 13 12 12 12 9
8 7 7 9 13 17 15 14 13 12 12 11 10 9 8 7 6 5 3 2 1 0 1 2 1 2 2 2 4 7 8 10 5 4 4 3 8 11 11 11 11 11 10
8 7 6 6 6 6 8 15 14 12 12 11 10 9 9 8 7 5 3 3 4 4 2 2 2 2 3 5 4 6 9 9 5 3 2 3 5 9 10 11 10 12 10
8 7 5 6 5 6 6 9 12 13 13 12 10 11 8 3 3 4 4 5 3 5 5 4 2 4 4 7 7 5 8 3 4 2 2 7 7 10 10 10 9 9 10
13 9 8 6 6 6 6 5 5 5 4 4 4 5 4 3 3 5 6 5 5 4 3 3 4 2 5 0 3 3 2 3 2 3 3 7 10 11 11 10 10 10 10
13 10 10 8 7 7 6 4 3 3 2 3 5 4 3 1 3 3 2 2 3 3 2 3 1 1 3 2 3 2 2 2 2 2 4 9 11 12 11 11 11 10 11
14 14 12 11 10 8 4 5 4 3 3 3 4 5 3 2 4 4 3 3 3 2 3 3 1 2 1 3 3 3 4 3 3 2 4 10 13 11 11 12 11 13 12
15 15 14 13 11 10 6 4 3 4 4 4 4 5 4 3 4 3 2 2 3 2 3 3 1 1 3 1 3 4 4 5 5 3 2 10 12 11 12 13 13 13 12
14 15 14 14 13 10 8 6 6 4 5 4 4 4 6 4 4 3 4 4 2 3 3 2 1 1 3 3 1 4 3 3 4 4 2 4 12 11 12 13 14 13 14
15 14 14 14 12 10 10 7 6 6 6 6 6 6 6 6 5 5 3 3 3 3 4 2 1 1 2 2 3 3 2 4 4 4 4 3 3 9 12 12 12 13 14
14 15 14 13 13 11 10 7 6 6 7 7 5 4 7 6 6 4 4 4 2 2 2 3 2 0 1 2 2 4 2 1 4 5 5 4 4 2 6 10 11 11 11
16 15 15 14 14 12 10 6 6 6 5 4 4 4 6 7 6 5 4 3 3 2 2 2 1 1 1 2 1 2 2 2 3 3 5 5 5 4 3 6 8 9 11
16 15 16 14 14 13 9 7 3 3 3 3 4 4 6 6 7 5 4 3 3 3 2 1 2 1 1 1 2 2 3 4 3 2 4 3 3 4 4 3 1 2 6
15 16 16 15 14 11 6 6 3 4 4 3 4 6 6 5 6 6 4 3 4 4 3 3 2 1 1 1 3 3 4 5 4 3 2 3 4 4 3 3 2 2 1
19 18 17 17 16 13 10 9 5 4 3 3 4 5 6 7 8 6 6 5 5 3 3 4 3 1 1 1 3 2 2 4 4 4 3 1 5 3 4 3 3 2 4
20 21 20 19 18 15 14 6 2 3 2 2 2 3 5 7 7 7 6 5 5 4 4 4 4 4 2 1 2 4 2 2 1 4 4 3 3 2 1 3 3 3 4
21 18 19 19 18 15 14 12 14 7 6 4 4 4 4 6 8 7 7 6 6 4 5 5 4 3 3 2 1 2 2 3 4 1 3 2 3 1 1 1 3 3 3
21 19 18 19 18 17 15 16 12 9 7 3 3 6 5 5 7 8 7 7 6 5 5 6 5 4 3 3 3 2 2 3 2 3 3 2 3 3 3 3 3 4 5
18 18 18 19 18 17 17 18 17 16 10 6 4 5 4 4 5 7 8 7 6 6 6 5 5 6 5 3 2 2 3 3 2 3 2 2 3 2 3 4 4 4 4
Wind_Direction
118 130 136 133 132 124 113 109 104 102 101 102 103 103 104 108 107 105 100 94 89 88 86 76 77 77 95 106 106 105 104 105 109 108 114 116 122 121 107 106 97 99 110
137 134 136 133 137 126 119 115 109 108 109 109 108 107 112 112 107 101 100 94 92 94 85 80 84 91 97 105 116 123 125 123 120 116 125 118 131 127 120 108 107 114 116
123 131 140 140 134 127 123 119 117 117 117 115 115 116 112 109 104 105 105 97 91 84 80 86 81 81 96 117 124 133 138 138 131 114 125 111 79 131 113 113 110 111 109
133 128 131 136 134 130 126 125 128 125 124 121 116 117 114 112 111 112 106 100 99 95 91 84 81 85 79 99 117 133 150 150 144 132 128 124 118 127 126 116 115 115 115
128 128 142 139 134 134 131 132 129 128 125 121 123 121 120 120 119 121 116 114 103 94 96 82 84 80 80 78 67 130 165 181 177 151 142 124 123 130 128 123 131 120 113
138 149 146 144 142 141 138 135 131 130 124 129 132 128 133 132 134 139 133 127 117 93 90 80 63 54 60 71 59 356 156 144 138 142 139 139 128 137 134 133 124 131 123
140 155 148 150 148 147 146 143 143 136 139 142 137 141 144 145 148 144 141 138 122 66 77 77 70 54 54 55 76 110 110 121 95 99 132 127 143 142 145 140 137 126 127
147 149 160 155 153 155 154 151 152 151 152 150 152 152 158 164 163 164 167 167 151 66 60 66 81 78 85 87 94 137 123 136 123 127 126 124 158 158 144 138 147 136 132
151 156 155 159 165 163 164 160 163 161 162 165 163 165 181 180 187 195 193 204 232 310 73 81 127 116 110 117 121 135 135 129 121 120 127 133 168 156 146 152 151 146 152
160 161 153 159 162 165 171 172 172 173 175 175 176 185 193 200 211 219 220 278 266 248 204 186 218 140 120 164 183 142 138 111 97 86 126 165 165 160 163 158 157 151 150
168 171 158 161 161 164 163 184 182 186 188 187 194 203 211 209 249 277 269 245 259 236 213 188 193 85 116 178 204 165 144 136 131 143 184 179 180 175 171 163 168 164 171
176 179 177 168 169 159 175 195 179 200 190 195 207 217 213 210 242 268 257 257 254 208 247 190 191 44 91 61 253 176 129 184 145 167 198 176 184 178 177 181 175 176 177
178 178 185 178 173 173 185 186 188 204 196 206 215 228 241 178 256 277 287 315 313 335 290 308 305 91 132 180 218 192 175 206 193 199 195 191 192 198 182 180 181 180 181
180 185 184 184 180 188 180 192 195 199 204 213 205 222 236 217 246 245 222 207 237 249 259 262 299 311 159 161 206 233 226 188 175 220 236 197 194 194 195 188 196 185 193
186 187 188 184 187 193 189 186 189 205 208 220 201 199 214 228 244 241 243 183 230 217 200 215 256 313 327 350 205 212 202 203 206 201 199 199 195 200 201 197 199 204 209
187 192 186 190 193 190 196 184 202 207 211 209 218 202 207 207 243 243 188 201 239 223 181 174 232 331 295 283 163 170 198 211 208 217 203 219 202 201 203 201 207 209 212
192 188 188 190 190 191 197 196 198 211 207 219 220 196 201 197 199 208 161 197 215 210 156 143 97 351 326 17 28 5 128 232 209 199 196 209 214 206 202 211 206 211 212
188 189 189 191 191 192 197 198 206 208 216 216 203 193 198 195 187 191 189 212 206 182 157 140 119 39 24 51 335 357 18 276 218 181 181 207 210 182 236 207 211 213 220
189 187 192 193 190 192 199 195 209 202 199 200 191 191 193 184 190 189 198 203 187 166 148 141 103 160 358 343 287 5 348 234 312 188 200 197 213 193 204 230 215 208 225
189 189 193 192 189 189 191 196 204 199 210 197 202 201 195 186 181 190 196 188 164 152 159 152 137 61 159 263 17 4 351 5 7 134 192 226 176 183 191 175 199 251 220
189 190 191 195 194 182 178 184 188 206 184 193 201 204 198 191 189 183 185 182 186 183 183 173 134 163 319 15 54 4 13 18 51 62 81 91 114 137 157 138 172 178 202
190 191 193 196 193 187 187 193 190 180 203 171 181 190 192 184 197 180 177 191 181 168 176 181 155 149 235 105 119 78 36 357 7 17 19 76 116 118 138 135 141 127 91
195 193 193 194 194 193 185 173 110 95 77 129 169 182 199 194 197 179 185 179 191 178 185 187 172 160 160 4 100 137 102 198 69 346 353 20 112 104 119 105 124 126 138
199 195 194 193 195 194 183 186 199 188 188 194 186 199 194 196 189 181 177 183 186 187 179 179 172 145 127 165 31 69 68 145 146 81 339 347 354 137 268 225 169 179 162
194 191 191 190 194 191 189 194 196 198 201 176 168 185 200 201 192 184 175 184 186 190 175 166 160 162 157 145 169 156 91 56 73 123 187 254 324 252 225 221 217 199 191
198 191 189 188 197 192 192 195 196 198 192 188 180 198 195 191 190 188 177 186 188 178 169 176 178 176 174 141 135 158 152 157 183 137 115 234 217 248 218 227 217 221 197